Date String (YYYY-MM-DD hh:mm:ss) UTC,Instrument flags,Ambient pressure (hPa),Sample flow (lpm),Bypass flow (lpm),Sample temperature (°C),Ambient temperature (°C),ASC tube jacket temperature (°C),LED temperature (°C),Box temperature (°C),Sample RH (%),Span deviation,Mass concentration (μg/m³),Mass concentration (μg/m³),Mass concentration (μg/m³)
DateTimeUTC,F1_M11,P_M11,Q1_M11,Q2_M11,T1_M11,T2_M11,T3_M11,T4_M11,T5_M11,U1_M11,ZSPAN_M11,X0_M11,X2_M11,X1_M11
2023-01-08 12:00:00,,0828.0,5.00,0.00,22.4,20.9,00.0,31.3,24.1,12.1,-000.0,0016.64,0013.40,0013.18
2023-01-08 12:01:00,,0828.1,5.01,0.00,22.4,20.9,00.0,31.3,24.1,11.9,-000.2,0015.89,0012.85,0012.64
2023-01-08 12:02:00,,0828.1,5.01,0.00,22.4,21.6,00.0,31.3,24.2,11.8,-000.1,0015.32,0012.33,0012.11
2023-01-08 12:03:00,,0828.0,5.00,0.00,22.5,22.5,00.0,31.3,24.4,11.7,-000.3,0014.55,0011.55,0011.38
2023-01-08 12:04:00,,0828.0,5.00,0.00,22.7,23.1,00.0,31.3,24.7,11.6,-000.3,0013.98,0011.04,0010.86
2023-01-08 12:05:00,,0828.1,4.99,0.00,22.7,22.8,00.0,31.4,24.7,11.5,-000.3,0013.26,0010.42,0010.27
2023-01-08 12:06:00,,0828.1,5.00,0.00,22.7,22.4,00.0,31.4,24.6,11.5,-000.5,0012.92,0009.94,0009.78
2023-01-08 12:07:00,,0828.1,5.00,0.00,22.7,22.1,00.0,31.4,24.5,11.5,-000.4,0012.65,0009.63,0009.48
2023-01-08 12:08:00,,0828.0,5.01,0.00,22.7,21.9,00.0,31.4,24.5,11.5,0000.1,0012.22,0009.36,0009.21
2023-01-08 12:09:00,,0828.0,5.00,0.00,22.7,21.7,00.0,31.5,24.5,11.5,0000.3,0011.91,0009.08,0008.96
2023-01-08 12:10:00,,0828.0,5.01,0.00,22.7,21.5,00.0,31.5,24.4,11.4,0000.4,0011.45,0008.66,0008.55
2023-01-08 12:11:00,,0828.0,5.01,0.00,22.7,21.4,00.0,31.5,24.4,11.3,0000.3,0011.16,0008.38,0008.27
2023-01-08 12:12:00,,0827.9,5.00,0.00,22.6,21.4,00.0,31.5,24.4,11.2,0000.9,0011.08,0008.30,0008.17
2023-01-08 12:13:00,,0827.9,4.99,0.00,22.6,21.3,00.0,31.5,24.3,11.2,0000.9,0010.87,0008.04,0007.92
2023-01-08 12:14:00,,0827.9,4.99,0.00,22.6,21.2,00.0,31.5,24.3,11.0,0000.9,0010.60,0007.82,0007.69
2023-01-08 12:15:00,,0827.9,4.99,0.00,22.6,21.1,00.0,31.5,24.3,10.5,0001.0,0010.42,0007.66,0007.53
2023-01-08 12:16:00,,0827.8,4.99,0.00,22.6,21.1,00.0,31.4,24.2,10.3,0001.1,0010.16,0007.41,0007.27
2023-01-08 12:17:00,,0827.7,5.00,0.00,22.6,21.1,00.0,31.4,24.2,11.0,0001.1,0009.81,0007.19,0007.07
2023-01-08 12:18:00,,0827.7,5.00,0.00,22.5,21.1,00.0,31.4,24.2,11.2,0001.2,0009.35,0006.85,0006.73
2023-01-08 12:19:00,,0827.8,5.01,0.00,22.5,21.1,00.0,31.4,24.2,11.3,0001.1,0009.16,0006.62,0006.49
2023-01-08 12:20:00,,0827.8,5.00,0.00,22.5,21.1,00.0,31.4,24.2,11.4,0000.8,0009.10,0006.52,0006.38
2023-01-08 12:21:00,,0827.9,5.00,0.00,22.5,21.1,00.0,31.4,24.2,11.4,0000.7,0009.01,0006.44,0006.31
2023-01-08 12:22:00,,0827.9,5.01,0.00,22.5,21.1,00.0,31.4,24.2,11.3,0000.8,0008.98,0006.42,0006.29
2023-01-08 12:23:00,,0827.9,4.99,0.00,22.5,21.0,00.0,31.4,24.2,11.4,0000.6,0008.97,0006.44,0006.32
2023-01-08 12:24:00,,0827.9,4.99,0.00,22.4,20.8,00.0,31.4,24.1,11.7,0000.7,0009.06,0006.57,0006.47
2023-01-08 12:25:00,,0827.9,5.01,0.00,22.4,20.8,00.0,31.3,24.1,12.3,0000.9,0009.64,0007.08,0006.95
2023-01-08 12:26:00,,0827.9,5.02,0.00,22.5,21.5,00.0,31.3,24.2,12.7,0001.1,0010.52,0007.87,0007.74
2023-01-08 12:27:00,,0827.9,4.99,0.00,22.6,22.6,00.0,31.3,24.5,12.7,0000.8,0011.29,0008.59,0008.43
2023-01-08 12:28:00,,0827.9,5.00,0.00,22.7,23.2,00.0,31.3,24.7,12.7,0000.6,0012.12,0009.37,0009.20
2023-01-08 12:29:00,,0827.9,4.99,0.00,22.7,22.8,00.0,31.4,24.7,12.8,0000.6,0013.04,0010.22,0010.02
2023-01-08 12:30:00,,0827.9,5.00,0.00,22.7,22.4,00.0,31.4,24.6,12.9,0000.5,0013.93,0011.06,0010.86
2023-01-08 12:31:00,,0827.9,5.00,0.00,22.7,22.1,00.0,31.5,24.6,13.0,0000.5,0014.76,0011.82,0011.60
2023-01-08 12:32:00,,0828.0,5.00,0.00,22.7,21.9,00.0,31.5,24.5,13.1,0000.5,0015.95,0012.71,0012.48
2023-01-08 12:33:00,,0827.9,5.00,0.00,22.7,21.7,00.0,31.5,24.5,13.2,0000.7,0016.97,0013.66,0013.43
2023-01-08 12:34:00,,0827.9,5.00,0.00,22.7,21.5,00.0,31.5,24.5,12.9,0000.8,0017.66,0014.29,0014.07
2023-01-08 12:35:00,,0827.8,5.01,0.00,22.7,21.4,00.0,31.5,24.4,12.3,0000.7,0017.94,0014.56,0014.34
2023-01-08 12:36:00,,0827.7,5.02,0.00,22.7,21.3,00.0,31.5,24.4,11.2,0000.7,0017.52,0014.16,0013.97
2023-01-08 12:37:00,,0827.8,4.98,0.00,22.6,21.3,00.0,31.5,24.4,10.2,0000.7,0016.57,0013.31,0013.12
2023-01-08 12:38:00,,0827.9,5.00,0.00,22.6,21.3,00.0,31.5,24.4,09.1,0000.9,0015.46,0012.29,0012.13
2023-01-08 12:39:00,,0827.8,5.00,0.00,22.6,21.3,00.0,31.5,24.3,10.0,0001.1,0014.56,0011.45,0011.32
2023-01-08 12:40:00,,0827.9,5.00,0.00,22.6,21.3,00.0,31.5,24.3,11.1,0001.4,0013.99,0010.91,0010.75
2023-01-08 12:41:00,,0827.9,4.99,0.00,22.6,21.1,00.0,31.5,24.3,11.1,0001.8,0013.25,0010.23,0010.10
2023-01-08 12:42:00,,0827.9,4.99,0.00,22.6,21.0,00.0,31.5,24.3,09.7,0002.2,0012.13,0009.20,0009.14
2023-01-08 12:43:00,,0827.9,5.02,0.00,22.5,20.9,00.0,31.5,24.2,09.8,0002.5,0010.83,0008.08,0008.01
2023-01-08 12:44:00,,0828.0,5.01,0.00,22.5,20.7,00.0,31.4,24.1,10.6,0002.9,0010.27,0007.08,0007.01
2023-01-08 12:45:00,,0828.0,5.00,0.00,22.4,20.6,00.0,31.4,24.0,11.4,0003.1,0009.58,0006.43,0006.34
2023-01-08 12:46:00,,0828.0,5.01,0.00,22.4,20.4,00.0,31.4,23.9,11.7,0003.1,0009.47,0006.27,0006.16
2023-01-08 12:47:00,,0827.8,5.00,0.00,22.3,20.4,00.0,31.4,23.9,11.8,0003.0,0009.80,0006.56,0006.42
2023-01-08 12:48:00,,0827.9,5.02,0.00,22.3,20.6,00.0,31.3,23.9,11.8,0003.0,0010.21,0006.95,0006.79
2023-01-08 12:49:00,,0827.7,5.00,0.00,22.4,21.5,00.0,31.3,24.1,12.0,0002.8,0010.94,0007.56,0007.39
2023-01-08 12:50:00,,0827.7,5.00,0.00,22.5,22.5,00.0,31.3,24.4,12.3,0002.0,0011.73,0008.25,0008.05
2023-01-08 12:51:00,,0827.8,4.99,0.00,22.6,22.4,00.0,31.3,24.5,12.5,0001.7,0012.35,0008.74,0008.52
2023-01-08 12:52:00,,0828.1,4.99,0.00,22.6,22.1,00.0,31.3,24.4,12.6,0001.3,0013.23,0009.24,0009.00
2023-01-08 12:53:00,,0828.0,4.99,0.00,22.6,21.9,00.0,31.4,24.3,12.8,0001.1,0014.32,0010.20,0009.90
2023-01-08 12:54:00,,0827.9,5.01,0.00,22.6,21.7,00.0,31.4,24.3,12.9,0000.9,0015.42,0011.27,0010.97
2023-01-08 12:55:00,,0827.8,5.01,0.00,22.5,21.5,00.0,31.4,24.3,12.7,0000.7,0015.58,0011.96,0011.67
2023-01-08 12:56:00,,0827.7,5.00,0.00,22.5,21.3,00.0,31.4,24.2,12.6,0000.6,0016.06,0012.40,0012.09
2023-01-08 12:57:00,,0827.9,5.00,0.00,22.5,21.2,00.0,31.4,24.2,12.6,0000.5,0016.64,0012.71,0012.41
2023-01-08 12:58:00,,0827.9,5.00,0.00,22.5,21.1,00.0,31.4,24.2,12.5,0000.3,0017.39,0012.95,0012.66
2023-01-08 12:59:00,,0827.8,5.01,0.00,22.5,21.1,00.0,31.4,24.2,12.4,0000.3,0018.21,0013.20,0012.91
